EN

Hourly Weather Altamira

Today, 20 January, Wednesday

Time Temperature Precipitation Wind Pressure Humidity
00:00 +23°C° 0.7 mm 0 mps 750 mmHg 97%
01:00 +22°C° 0.7 mm 0 mps 749 mmHg 98%
02:00 +22°C° 0.7 mm 0 mps 749 mmHg 98%
03:00 +22°C° 0.7 mm 0 mps 748 mmHg 98%
04:00 +22°C° 0.9 mm 0 mps 748 mmHg 99%
05:00 +22°C° 0.9 mm 0 mps 748 mmHg 99%
06:00 +22°C° 0.9 mm 0 mps 748 mmHg 99%
07:00 +22°C° 0.7 mm 0 mps 749 mmHg 99%
08:00 +22°C° 0.7 mm 0 mps 750 mmHg 99%
09:00 +23°C° 0.7 mm 0 mps 750 mmHg 99%
10:00 +23°C° 0.5 mm 0 mps 750 mmHg 98%
11:00 +25°C° 0.5 mm 1 mps 750 mmHg 98%
12:00 +25°C° 0.5 mm 1 mps 750 mmHg 98%
13:00 +25°C° 1.2 mm 1 mps 750 mmHg 98%
14:00 +25°C° 1.2 mm 1 mps 749 mmHg 98%
15:00 +24°C° 1.2 mm 1 mps 749 mmHg 98%
16:00 +24°C° 1.1 mm 1 mps 749 mmHg 99%
17:00 +24°C° 1.1 mm 1 mps 748 mmHg 99%
18:00 +22°C° 1.1 mm 0 mps 748 mmHg 99%
19:00 +22°C° 1 mm 0 mps 749 mmHg 99%
20:00 +21°C° 1 mm 0 mps 749 mmHg 99%
21:00 +21°C° 1 mm 0 mps 750 mmHg 99%
22:00 +21°C° 0 mm 0 mps 749 mmHg 99%
23:00 +23°C° 0 mm 1 mps 749 mmHg 99%

Tomorrow, 21 January, Thursday

Time Temperature Precipitation Wind Pressure Humidity
00:00 +23°C° 0 mm 1 mps 749 mmHg 99%
01:00 +21°C° 0 mm 0 mps 749 mmHg 99%
02:00 +21°C° 0 mm 0 mps 748 mmHg 99%
03:00 +21°C° 0 mm 0 mps 748 mmHg 99%
04:00 +21°C° 0 mm 0 mps 748 mmHg 99%
05:00 +21°C° 0 mm 0 mps 748 mmHg 99%
06:00 +20°C° 0 mm 0 mps 748 mmHg 99%
07:00 +23°C° 0.1 mm 1 mps 749 mmHg 98%
08:00 +24°C° 0.1 mm 1 mps 749 mmHg 97%
09:00 +24°C° 0.1 mm 1 mps 750 mmHg 96%
10:00 +25°C° 0.2 mm 1 mps 750 mmHg 91%
11:00 +26°C° 0.2 mm 1 mps 750 mmHg 87%
12:00 +27°C° 0.2 mm 1 mps 750 mmHg 83%
13:00 +28°C° 0 mm 1 mps 749 mmHg 76%
14:00 +29°C° 0 mm 1 mps 749 mmHg 69%
15:00 +30°C° 0 mm 1 mps 748 mmHg 62%
16:00 +30°C° 0 mm 1 mps 747 mmHg 66%
17:00 +29°C° 0 mm 1 mps 747 mmHg 71%
18:00 +28°C° 0 mm 1 mps 747 mmHg 75%
19:00 +27°C° 0 mm 1 mps 748 mmHg 78%
20:00 +24°C° 0 mm 0 mps 748 mmHg 81%
21:00 +23°C° 0 mm 0 mps 749 mmHg 84%
22:00 +23°C° 0 mm 0 mps 749 mmHg 84%
23:00 +23°C° 0 mm 0 mps 749 mmHg 85%

Day after tomorrow, 22 January, Friday

Time Temperature Precipitation Wind Pressure Humidity
00:00 +22°C° 0 mm 0 mps 750 mmHg 85%
01:00 +22°C° 0.4 mm 0 mps 749 mmHg 89%
02:00 +21°C° 0.4 mm 0 mps 749 mmHg 94%
03:00 +21°C° 0.4 mm 0 mps 749 mmHg 98%
04:00 +21°C° 0.4 mm 0 mps 749 mmHg 98%
05:00 +21°C° 0.4 mm 0 mps 749 mmHg 98%
06:00 +21°C° 0.4 mm 0 mps 750 mmHg 99%
07:00 +22°C° 0 mm 0 mps 750 mmHg 96%
08:00 +25°C° 0 mm 1 mps 751 mmHg 93%
09:00 +26°C° 0 mm 1 mps 751 mmHg 89%
10:00 +28°C° 0.1 mm 1 mps 751 mmHg 79%
11:00 +30°C° 0.1 mm 1 mps 750 mmHg 70%
12:00 +32°C° 0.1 mm 1 mps 750 mmHg 60%
13:00 +33°C° 0.3 mm 1 mps 749 mmHg 59%
14:00 +33°C° 0.3 mm 1 mps 748 mmHg 58%
15:00 +33°C° 0.3 mm 1 mps 747 mmHg 57%
16:00 +32°C° 0.1 mm 1 mps 747 mmHg 61%
17:00 +30°C° 0.1 mm 0 mps 747 mmHg 64%
18:00 +29°C° 0.1 mm 0 mps 747 mmHg 67%
19:00 +27°C° 0.1 mm 0 mps 748 mmHg 72%
20:00 +28°C° 0.1 mm 1 mps 748 mmHg 77%
21:00 +26°C° 0.1 mm 1 mps 749 mmHg 83%
22:00 +25°C° 0.1 mm 1 mps 749 mmHg 85%
23:00 +25°C° 0.1 mm 1 mps 749 mmHg 88%

23 January, Saturday

Time Temperature Precipitation Wind Pressure Humidity
00:00 +24°C° 0.1 mm 1 mps 749 mmHg 91%
01:00 +24°C° 0 mm 1 mps 749 mmHg 93%
02:00 +22°C° 0 mm 0 mps 749 mmHg 95%
03:00 +21°C° 0 mm 0 mps 749 mmHg 97%
04:00 +21°C° 0 mm 0 mps 749 mmHg 98%
05:00 +21°C° 0 mm 0 mps 749 mmHg 98%
06:00 +21°C° 0 mm 0 mps 749 mmHg 99%
07:00 +24°C° 0 mm 1 mps 750 mmHg 93%
08:00 +26°C° 0 mm 1 mps 750 mmHg 88%
09:00 +27°C° 0 mm 1 mps 751 mmHg 82%
10:00 +29°C° 0 mm 1 mps 751 mmHg 71%
11:00 +32°C° 0 mm 2 mps 750 mmHg 61%
12:00 +35°C° 0 mm 2 mps 750 mmHg 50%
13:00 +35°C° 0 mm 2 mps 749 mmHg 48%
14:00 +36°C° 0 mm 2 mps 748 mmHg 46%
15:00 +37°C° 0 mm 2 mps 747 mmHg 43%
16:00 +35°C° 0 mm 2 mps 747 mmHg 50%
17:00 +33°C° 0 mm 1 mps 746 mmHg 57%
18:00 +31°C° 0 mm 1 mps 746 mmHg 63%
19:00 +29°C° 0.3 mm 1 mps 747 mmHg 70%
20:00 +28°C° 0.3 mm 1 mps 747 mmHg 78%
21:00 +26°C° 0.3 mm 1 mps 748 mmHg 85%
22:00 +25°C° 0.5 mm 1 mps 748 mmHg 89%
23:00 +25°C° 0.5 mm 1 mps 749 mmHg 93%

24 January, Sunday

Time Temperature Precipitation Wind Pressure Humidity
00:00 +24°C° 0.5 mm 1 mps 749 mmHg 97%
01:00 +24°C° 0.5 mm 1 mps 749 mmHg 97%
02:00 +24°C° 0.5 mm 1 mps 749 mmHg 98%
03:00 +24°C° 0.5 mm 1 mps 748 mmHg 98%
04:00 +24°C° 0.4 mm 1 mps 748 mmHg 99%
05:00 +23°C° 0.4 mm 1 mps 748 mmHg 99%
06:00 +21°C° 0.4 mm 0 mps 748 mmHg 99%
07:00 +24°C° 0 mm 1 mps 749 mmHg 96%
08:00 +25°C° 0 mm 1 mps 749 mmHg 93%
09:00 +27°C° 0 mm 1 mps 750 mmHg 90%
10:00 +28°C° 0 mm 1 mps 750 mmHg 81%
11:00 +30°C° 0 mm 1 mps 749 mmHg 72%
12:00 +31°C° 0 mm 2 mps 749 mmHg 63%
13:00 +32°C° 0.1 mm 2 mps 748 mmHg 60%
14:00 +33°C° 0.1 mm 1 mps 747 mmHg 58%
15:00 +33°C° 0.1 mm 1 mps 746 mmHg 55%
16:00 +31°C° 1.4 mm 1 mps 746 mmHg 68%
17:00 +30°C° 1.4 mm 1 mps 746 mmHg 80%
18:00 +28°C° 1.4 mm 1 mps 746 mmHg 93%
19:00 +27°C° 0.7 mm 1 mps 746 mmHg 94%
20:00 +26°C° 0.7 mm 1 mps 747 mmHg 96%
21:00 +25°C° 0.7 mm 1 mps 748 mmHg 97%
22:00 +25°C° 0.9 mm 1 mps 748 mmHg 97%
23:00 +24°C° 0.9 mm 1 mps 748 mmHg 98%

25 January, Monday

Time Temperature Precipitation Wind Pressure Humidity
00:00 +24°C° 0.9 mm 1 mps 748 mmHg 98%
01:00 +24°C° 0.8 mm 1 mps 748 mmHg 98%
02:00 +24°C° 0.8 mm 1 mps 748 mmHg 99%
03:00 +22°C° 0.8 mm 0 mps 747 mmHg 99%
04:00 +22°C° 0 mm 0 mps 747 mmHg 99%
05:00 +22°C° 0 mm 0 mps 748 mmHg 99%
06:00 +22°C° 0 mm 0 mps 748 mmHg 99%
07:00 +25°C° 0 mm 1 mps 748 mmHg 97%
08:00 +25°C° 0 mm 1 mps 749 mmHg 95%
09:00 +26°C° 0 mm 1 mps 749 mmHg 93%
10:00 +28°C° 0.4 mm 1 mps 749 mmHg 88%
11:00 +29°C° 0.4 mm 1 mps 749 mmHg 83%
12:00 +30°C° 0.4 mm 1 mps 749 mmHg 78%
13:00 +31°C° 1.4 mm 1 mps 748 mmHg 78%
14:00 +31°C° 1.4 mm 1 mps 747 mmHg 77%
15:00 +31°C° 1.4 mm 1 mps 745 mmHg 77%
16:00 +30°C° 0.9 mm 1 mps 745 mmHg 82%
17:00 +27°C° 0.9 mm 0 mps 745 mmHg 87%
18:00 +27°C° 0.9 mm 0 mps 745 mmHg 92%
19:00 +25°C° 0.4 mm 0 mps 746 mmHg 93%
20:00 +26°C° 0.4 mm 1 mps 746 mmHg 94%
21:00 +25°C° 0.4 mm 1 mps 747 mmHg 95%
22:00 +25°C° 0.9 mm 1 mps 747 mmHg 96%
23:00 +25°C° 0.9 mm 1 mps 748 mmHg 97%
Show more